Wind_Speed
12 12 11 11 10 10 10 10 11 11 11 12 12 12 13 13 13 13 13 13 13 13 14 15 15 15 14 14 14 15 15 16 16 16 16 17 17 18 18 17 16 17 17
12 12 12 11 10 10 10 11 11 11 12 12 12 12 13 13 14 14 14 14 14 14 14 15 15 15 15 15 15 15 15 16 16 16 17 17 17 18 17 16 17 17 17
12 12 11 11 11 11 10 11 11 12 12 12 12 12 13 13 14 14 14 14 14 14 15 15 16 16 16 16 16 16 17 17 17 17 18 18 18 18 18 17 18 18 18
12 12 12 11 11 11 10 11 11 11 12 12 12 12 12 12 13 13 14 14 14 14 14 15 16 16 16 17 17 17 19 19 18 18 18 19 19 19 18 18 19 19 19
12 13 12 12 11 11 11 11 11 12 12 12 12 12 12 12 13 13 13 14 14 13 14 14 15 15 16 17 17 17 18 18 19 18 18 18 19 20 20 19 19 20 20
13 13 12 12 11 11 12 12 12 13 13 13 13 13 13 14 14 14 14 14 14 14 14 14 14 15 15 16 16 16 17 17 18 18 19 20 20 20 20 20 20 20 21
12 13 12 12 11 11 11 12 13 13 13 13 13 14 14 15 15 15 15 15 14 14 14 15 14 14 15 15 16 16 16 16 17 18 19 20 21 21 20 20 20 20 21
11 12 13 12 12 12 12 13 13 14 13 13 14 15 15 15 16 16 16 16 15 15 15 15 15 15 15 15 16 16 16 17 17 18 18 19 20 20 21 21 21 21 21
11 12 12 13 14 14 14 14 14 14 14 14 15 15 16 16 16 16 16 16 16 16 16 16 16 17 17 16 16 17 17 18 17 18 18 18 19 20 20 21 22 22 23
12 12 12 13 15 15 15 15 14 15 15 15 15 16 16 16 16 16 16 16 16 17 17 16 16 16 17 17 17 18 17 18 18 17 18 18 18 20 21 22 22 22 23
13 13 14 14 15 15 15 15 14 15 15 15 15 15 16 15 16 16 16 16 16 17 16 16 17 16 17 17 18 17 17 17 17 17 18 18 19 20 21 21 22 22 23
14 13 15 15 15 15 15 15 15 15 15 16 16 16 16 16 16 16 16 16 16 16 16 16 17 17 17 17 18 17 17 17 17 17 18 18 19 20 21 22 22 23 23
12 13 14 15 15 15 15 15 14 14 14 15 15 15 15 16 16 16 16 16 16 16 16 16 16 17 17 18 17 17 17 17 17 17 18 19 19 20 22 23 24 24 25
12 12 13 14 14 14 15 14 14 13 13 13 14 14 14 14 15 15 16 16 15 15 15 15 16 16 16 16 16 16 17 17 17 18 18 18 19 19 20 22 23 25 26
13 13 14 14 13 12 13 13 13 13 13 13 13 14 14 14 14 14 15 15 15 15 15 14 15 15 15 15 15 16 16 17 18 18 19 19 19 19 20 21 22 23 24
14 14 13 13 12 12 12 12 12 13 14 13 13 13 13 13 13 14 15 15 15 15 15 15 15 15 15 16 16 17 18 19 19 19 19 20 20 20 20 21 22 23 23
13 12 12 12 12 12 12 12 12 13 13 12 12 13 13 14 14 14 14 15 15 15 15 15 15 15 16 16 17 17 17 18 18 19 20 20 20 21 21 21 22 23 24
12 12 13 12 13 13 12 12 12 12 12 12 12 13 13 14 14 14 14 14 14 14 14 15 15 16 16 16 16 16 16 16 17 18 19 20 20 21 21 22 23 23 24
12 12 13 13 13 13 12 12 12 11 12 12 12 13 13 14 14 14 14 13 13 14 15 15 15 16 16 17 17 17 17 17 18 19 19 19 20 21 21 22 23 24 24
12 12 13 13 12 12 12 12 12 12 12 12 12 13 13 13 14 14 13 13 13 14 15 15 16 16 16 16 16 17 18 18 18 19 20 20 20 21 22 23 24 24 25
11 12 12 12 12 12 12 11 12 12 13 13 12 13 13 13 14 13 12 13 13 14 15 16 16 16 16 16 17 17 17 18 19 19 20 20 20 21 22 23 24 24 25
11 11 11 11 12 12 12 12 12 13 14 13 13 13 13 13 12 13 13 14 14 15 15 15 16 16 16 16 16 16 17 17 18 19 20 20 21 22 22 23 23 23 24
11 11 11 11 11 11 12 12 13 13 13 14 13 13 12 12 13 13 13 13 14 14 15 15 15 15 15 16 16 16 17 17 18 19 20 20 21 21 21 22 22 22 22
12 11 11 11 11 12 12 13 13 13 13 13 12 12 13 13 14 14 14 14 14 14 15 15 14 15 15 16 16 17 17 18 18 19 19 19 20 21 21 21 21 21 21
11 11 12 12 12 12 12 12 13 12 12 11 12 12 13 13 14 14 14 14 14 15 14 14 14 15 15 16 16 16 17 18 17 18 18 19 20 20 21 20 20 20 20
12 12 12 13 12 12 13 13 12 11 11 11 11 12 12 12 13 14 14 14 14 14 14 14 14 14 15 16 16 16 17 18 18 18 19 19 20 20 21 20 20 20 20
Wind_Direction
268 265 267 268 268 266 264 263 266 256 256 258 261 261 260 258 258 261 262 261 258 257 256 256 259 256 256 260 260 256 256 254 253 253 249 248 248 251 250 245 243 245 245
267 265 265 263 264 266 268 267 264 260 260 261 263 261 259 258 260 263 264 262 259 260 260 258 257 257 257 260 260 258 254 253 252 253 252 249 250 250 250 248 246 246 248
265 268 266 263 266 269 268 265 264 260 262 262 262 263 262 260 261 265 266 264 263 263 260 259 259 260 260 260 261 262 259 258 253 251 251 250 249 248 249 251 248 245 248
264 266 264 264 267 268 267 265 262 259 261 263 263 265 262 261 264 266 268 268 267 267 262 260 257 257 258 260 263 264 262 260 254 252 249 248 246 247 247 247 248 248 248
259 261 264 264 267 267 266 264 262 261 259 261 263 264 265 265 266 267 268 269 269 265 263 261 260 259 259 262 263 264 263 259 255 253 249 248 247 247 246 247 248 248 249
261 261 265 264 268 269 267 263 262 262 261 262 263 264 264 265 266 266 267 270 268 265 263 265 265 264 264 264 264 263 263 260 257 256 252 251 250 249 248 250 250 251 252
264 264 262 262 266 268 269 268 265 264 265 264 264 266 266 265 265 266 266 267 266 265 263 265 265 266 266 266 264 263 265 263 260 256 254 252 252 251 252 252 253 254 255
266 262 264 263 263 265 269 268 265 265 264 266 267 269 269 266 266 267 267 267 265 265 264 264 263 264 267 268 266 265 265 265 261 257 255 253 252 253 253 253 255 256 256
271 272 269 265 266 269 270 270 265 265 266 267 269 271 271 268 267 267 265 264 264 264 264 265 266 266 266 267 266 265 265 265 264 262 259 256 252 253 254 255 256 257 258
274 275 272 269 269 270 271 271 267 266 267 269 270 271 269 268 266 265 265 265 265 266 266 266 266 266 264 266 266 264 262 263 263 262 257 255 257 255 256 257 256 258 258
272 273 273 274 271 270 272 272 270 268 268 268 268 269 269 266 265 266 266 267 266 266 265 264 263 266 266 265 265 266 264 262 262 262 261 260 261 259 256 257 258 259 259
268 272 274 274 274 273 274 273 270 269 268 269 269 269 268 265 265 265 265 266 265 265 264 262 264 266 267 267 267 268 266 263 262 264 265 265 266 264 260 259 260 262 261
268 272 275 276 278 276 276 275 274 273 272 273 271 269 268 266 265 265 266 267 267 265 265 263 263 264 266 267 268 266 264 264 266 266 267 269 269 268 265 263 262 263 264
271 271 275 277 277 277 278 274 274 274 274 272 268 269 268 267 267 268 269 269 268 266 266 265 267 265 266 270 269 266 265 264 266 269 270 271 272 271 270 268 266 265 265
270 272 277 279 278 279 281 279 275 271 271 270 268 268 266 266 266 266 268 271 272 270 268 267 267 268 266 268 271 270 269 267 267 269 270 272 273 273 272 271 269 268 268
272 276 279 279 279 280 282 278 275 270 267 269 269 265 265 264 265 266 268 271 271 269 266 268 268 269 269 269 271 272 272 271 270 271 273 274 273 275 276 275 273 272 271
275 274 277 276 276 276 276 275 273 271 268 267 266 266 267 266 267 269 271 271 269 267 268 270 271 271 273 273 274 274 274 273 272 274 275 277 275 275 276 277 278 277 276
274 273 274 273 271 273 274 272 272 269 267 264 265 268 269 267 268 269 270 270 268 267 269 270 273 273 273 275 276 276 278 276 276 278 278 279 277 278 279 279 279 278 277
275 275 274 272 272 273 272 268 267 267 267 266 267 268 269 269 269 269 269 269 268 267 269 270 273 274 274 275 277 278 279 279 280 280 281 280 279 280 281 281 281 280 279
276 275 274 274 275 272 267 266 265 268 270 271 273 273 271 271 270 269 268 269 269 270 271 271 273 274 276 277 279 280 281 282 283 282 282 282 281 283 284 282 282 282 282
278 277 276 276 276 273 269 270 268 270 272 275 277 277 276 273 274 272 272 271 272 273 275 274 273 276 278 280 279 280 283 286 286 285 286 286 284 285 287 287 286 284 283
279 277 278 277 274 273 272 273 275 275 274 276 276 277 277 274 276 275 277 276 276 275 276 276 276 277 278 279 278 280 285 289 290 291 290 289 287 287 289 290 289 288 287
277 278 278 277 275 275 276 276 278 278 276 275 276 277 276 273 274 275 278 279 279 279 278 278 279 279 278 278 278 280 284 289 293 295 293 292 291 289 291 290 289 289 288
275 277 278 278 280 280 282 282 279 277 278 278 277 276 275 273 273 274 279 280 282 283 280 279 278 277 276 277 278 280 284 290 292 296 296 294 293 294 295 293 291 291 289
275 276 276 278 280 283 285 285 281 278 278 278 278 278 279 278 274 275 280 281 283 286 283 280 279 278 279 279 280 281 286 292 295 296 296 296 297 297 297 294 292 293 293
278 279 278 277 277 280 284 285 284 280 278 277 277 279 279 279 279 279 282 283 283 285 283 280 281 282 284 284 283 284 288 293 295 297 298 298 298 298 298 297 296 295 294
Height
5852 5852 5852 5852 5852 5853 5853 5853 5853 5854 5854 5854 5855 5855 5855 5855 5856 5855 5856 5856 5856 5856 5857 5857 5857 5858 5858 5858 5859 5859 5859 5860 5860 5861 5862 5863 5864 5865 5866 5867 5868 5869 5870
5850 5849 5849 5849 5850 5850 5850 5850 5850 5851 5851 5851 5851 5852 5852 5852 5852 5852 5852 5852 5852 5853 5853 5854 5854 5854 5855 5855 5856 5855 5856 5856 5856 5857 5858 5859 5860 5861 5862 5863 5864 5865 5867
5847 5847 5847 5847 5847 5847 5847 5847 5848 5848 5848 5848 5848 5849 5849 5849 5849 5849 5849 5849 5849 5849 5849 5850 5850 5851 5851 5852 5852 5852 5852 5852 5853 5853 5854 5855 5856 5857 5858 5859 5860 5861 5863
5844 5844 5844 5844 5844 5844 5844 5845 5845 5845 5845 5845 5845 5845 5846 5846 5846 5846 5846 5846 5846 5846 5846 5846 5846 5847 5847 5848 5848 5848 5848 5848 5848 5849 5850 5851 5852 5853 5854 5855 5856 5857 5858
5841 5841 5842 5841 5841 5842 5842 5842 5842 5842 5842 5842 5842 5843 5843 5843 5843 5843 5843 5843 5843 5843 5843 5843 5843 5843 5844 5844 5844 5843 5843 5844 5844 5845 5845 5846 5847 5848 5850 5851 5852 5853 5854
5839 5839 5839 5839 5839 5839 5839 5839 5839 5839 5839 5839 5839 5839 5839 5840 5840 5840 5840 5839 5839 5839 5839 5839 5840 5840 5840 5840 5839 5839 5839 5839 5840 5840 5841 5842 5843 5844 5845 5846 5847 5848 5849
5836 5836 5835 5835 5836 5836 5836 5836 5836 5835 5835 5835 5835 5836 5836 5836 5836 5836 5836 5836 5835 5836 5836 5836 5836 5836 5836 5835 5835 5835 5835 5835 5835 5836 5836 5837 5838 5839 5840 5841 5842 5843 5844
5833 5833 5833 5833 5833 5833 5833 5832 5832 5832 5831 5831 5832 5832 5832 5833 5832 5832 5832 5832 5832 5832 5832 5832 5832 5832 5831 5831 5831 5831 5831 5830 5831 5831 5831 5832 5833 5834 5835 5836 5837 5838 5839
5830 5830 5829 5829 5829 5829 5829 5829 5829 5828 5828 5827 5828 5828 5828 5828 5828 5828 5828 5828 5828 5828 5828 5828 5828 5827 5827 5827 5826 5826 5826 5826 5826 5826 5827 5827 5828 5829 5830 5831 5832 5833 5834
5826 5826 5826 5826 5826 5825 5825 5825 5824 5824 5824 5823 5823 5823 5823 5823 5823 5824 5824 5824 5824 5824 5824 5824 5823 5822 5822 5822 5822 5821 5821 5821 5822 5822 5822 5822 5823 5824 5824 5825 5826 5827 5828
5823 5823 5822 5822 5822 5821 5821 5820 5820 5820 5819 5819 5819 5818 5818 5818 5819 5819 5819 5819 5819 5819 5819 5819 5819 5818 5818 5817 5817 5817 5817 5817 5817 5817 5817 5817 5818 5818 5819 5819 5820 5821 5821
5819 5819 5818 5818 5817 5817 5816 5816 5815 5815 5814 5814 5814 5814 5814 5814 5814 5814 5814 5814 5814 5814 5814 5814 5814 5814 5813 5813 5812 5812 5812 5812 5812 5812 5812 5812 5812 5813 5813 5814 5814 5815 5815
5815 5814 5814 5814 5813 5813 5812 5811 5811 5810 5810 5809 5809 5809 5810 5810 5810 5810 5810 5810 5810 5810 5810 5810 5810 5809 5809 5808 5808 5808 5808 5808 5807 5807 5807 5807 5807 5807 5807 5807 5807 5808 5808
5812 5811 5810 5810 5809 5809 5808 5807 5807 5806 5806 5805 5805 5805 5805 5805 5805 5805 5805 5805 5805 5805 5805 5805 5805 5805 5804 5804 5803 5803 5803 5803 5803 5803 5802 5802 5801 5801 5801 5801 5801 5801 5801
5808 5807 5807 5806 5805 5805 5804 5803 5803 5802 5802 5802 5802 5802 5801 5801 5801 5801 5801 5801 5801 5801 5801 5801 5800 5800 5800 5799 5799 5799 5799 5798 5798 5798 5797 5797 5796 5796 5795 5795 5795 5794 5794
5804 5803 5803 5802 5801 5801 5800 5799 5799 5799 5798 5798 5798 5798 5797 5797 5797 5797 5797 5796 5796 5796 5796 5796 5796 5796 5795 5795 5795 5794 5794 5793 5793 5793 5792 5791 5791 5790 5789 5789 5788 5788 5787
5800 5799 5799 5798 5798 5797 5797 5796 5796 5795 5795 5794 5794 5794 5794 5793 5793 5793 5792 5792 5792 5792 5792 5792 5791 5791 5791 5791 5790 5789 5788 5788 5787 5787 5786 5785 5785 5784 5783 5782 5782 5781 5780
5796 5795 5795 5794 5794 5793 5793 5792 5792 5791 5791 5791 5790 5790 5789 5789 5789 5789 5788 5788 5788 5787 5787 5787 5787 5787 5786 5786 5785 5785 5783 5782 5782 5781 5780 5779 5779 5778 5777 5776 5775 5774 5773
5792 5791 5791 5790 5790 5789 5789 5789 5788 5788 5788 5787 5787 5786 5786 5785 5785 5784 5784 5784 5783 5783 5783 5783 5782 5782 5782 5781 5781 5780 5778 5777 5776 5775 5774 5773 5772 5772 5770 5769 5768 5767 5765
5788 5787 5787 5786 5786 5785 5785 5785 5785 5785 5784 5784 5783 5782 5782 5781 5781 5780 5780 5779 5779 5779 5778 5778 5778 5777 5777 5776 5776 5775 5774 5772 5771 5770 5769 5767 5766 5765 5764 5763 5761 5759 5758
5785 5784 5783 5782 5782 5782 5782 5782 5781 5781 5781 5780 5779 5779 5778 5778 5777 5776 5776 5775 5775 5774 5774 5773 5773 5772 5772 5771 5771 5770 5769 5768 5766 5764 5763 5762 5760 5759 5757 5755 5754 5752 5750
5781 5780 5780 5779 5779 5779 5779 5778 5778 5777 5777 5776 5775 5775 5774 5773 5773 5772 5772 5771 5771 5770 5769 5768 5768 5767 5767 5766 5766 5765 5764 5763 5762 5760 5757 5756 5754 5752 5750 5748 5746 5744 5742
5779 5778 5777 5776 5776 5776 5775 5775 5774 5774 5773 5772 5771 5771 5770 5769 5769 5768 5767 5767 5766 5765 5765 5764 5763 5763 5762 5762 5761 5760 5759 5758 5757 5755 5752 5750 5748 5746 5744 5742 5740 5738 5736
5776 5775 5774 5774 5773 5773 5772 5772 5771 5770 5769 5768 5767 5767 5766 5765 5765 5764 5763 5763 5762 5761 5760 5759 5758 5758 5757 5757 5756 5756 5755 5753 5752 5749 5747 5745 5742 5740 5737 5736 5734 5731 5730
5773 5772 5772 5771 5770 5770 5769 5768 5767 5766 5765 5765 5764 5763 5762 5762 5761 5760 5759 5759 5758 5757 5755 5754 5754 5753 5752 5752 5751 5750 5749 5748 5746 5744 5742 5739 5737 5734 5732 5730 5728 5726 5724
5770 5769 5768 5768 5767 5766 5765 5765 5764 5763 5762 5761 5760 5759 5759 5758 5757 5756 5755 5754 5753 5752 5751 5750 5749 5749 5748 5747 5746 5745 5744 5743 5741 5739 5737 5734 5732 5729 5727 5724 5722 5720 5718